Time,TemperatureF,DewpointF,PressureIn,WindDirection,WindDirectionDegrees,WindSpeedMPH,WindSpeedGustMPH,Humidity,HourlyPrecipIn,Conditions,Clouds,dailyrainin,SoftwareType,DateUTC
2013-05-10 00:12:00,59.7,58.0,30.07,West,269,0.0,0.0,95,0.00,,,0.00,weatherlink.com 1.10,2013-05-10 04:12:00,
2013-05-10 00:27:00,59.5,58.0,30.07,West,269,0.0,0.0,95,0.00,,,0.00,weatherlink.com 1.10,2013-05-10 04:27:00,
2013-05-10 00:42:00,59.5,58.0,30.08,WSW,251,0.0,0.0,96,0.00,,,0.00,weatherlink.com 1.10,2013-05-10 04:42:00,
2013-05-10 00:57:00,60.0,59.0,30.08,South,169,0.0,1.0,96,0.00,,,0.00,weatherlink.com 1.10,2013-05-10 04:57:00,
2013-05-10 01:12:00,60.5,59.0,30.08,South,169,0.0,1.0,93,0.00,,,0.00,weatherlink.com 1.10,2013-05-10 05:12:00,
2013-05-10 01:27:00,60.3,58.0,30.08,South,169,0.0,0.0,93,0.00,,,0.00,weatherlink.com 1.10,2013-05-10 05:27:00,
2013-05-10 01:42:00,60.0,58.0,30.08,South,169,0.0,0.0,93,0.00,,,0.00,weatherlink.com 1.10,2013-05-10 05:42:00,
2013-05-10 01:57:00,59.7,58.0,30.07,South,169,0.0,0.0,93,0.00,,,0.00,weatherlink.com 1.10,2013-05-10 05:57:00,
2013-05-10 02:12:00,59.4,58.0,30.07,South,169,0.0,0.0,94,0.00,,,0.00,weatherlink.com 1.10,2013-05-10 06:12:00,
2013-05-10 02:27:00,59.2,58.0,30.06,South,169,0.0,0.0,94,0.00,,,0.00,weatherlink.com 1.10,2013-05-10 06:27:00,
2013-05-10 02:42:00,58.9,58.0,30.06,South,169,0.0,0.0,95,0.00,,,0.00,weatherlink.com 1.10,2013-05-10 06:42:00,
2013-05-10 02:57:00,58.6,57.0,30.06,South,169,0.0,0.0,95,0.00,,,0.00,weatherlink.com 1.10,2013-05-10 06:57:00,
2013-05-10 03:12:00,58.5,57.0,30.05,South,169,0.0,0.0,96,0.00,,,0.00,weatherlink.com 1.10,2013-05-10 07:12:00,
2013-05-10 03:27:00,58.4,57.0,30.05,South,169,0.0,0.0,96,0.00,,,0.00,weatherlink.com 1.10,2013-05-10 07:27:00,
2013-05-10 03:42:00,58.3,57.0,30.05,South,169,0.0,0.0,96,0.00,,,0.00,weatherlink.com 1.10,2013-05-10 07:42:00,
2013-05-10 03:57:00,58.0,57.0,30.05,South,169,0.0,0.0,95,0.00,,,0.00,weatherlink.com 1.10,2013-05-10 07:57:00,
2013-05-10 04:13:00,57.6,57.0,30.05,South,169,0.0,0.0,96,0.00,,,0.00,weatherlink.com 1.10,2013-05-10 08:13:00,
2013-05-10 04:28:00,57.3,56.0,30.05,South,169,0.0,0.0,95,0.00,,,0.00,weatherlink.com 1.10,2013-05-10 08:28:00,
2013-05-10 04:58:00,56.8,56.0,30.04,South,169,0.0,0.0,96,0.00,,,0.00,weatherlink.com 1.10,2013-05-10 08:58:00,
2013-05-10 05:13:00,56.6,56.0,30.04,South,169,0.0,0.0,96,0.00,,,0.00,weatherlink.com 1.10,2013-05-10 09:13:00,
2013-05-10 05:28:00,56.4,55.0,30.04,South,169,0.0,0.0,96,0.00,,,0.00,weatherlink.com 1.10,2013-05-10 09:28:00,
2013-05-10 05:43:00,56.3,55.0,30.04,South,169,0.0,0.0,96,0.00,,,0.00,weatherlink.com 1.10,2013-05-10 09:43:00,
2013-05-10 05:58:00,56.1,55.0,30.04,South,169,0.0,0.0,96,0.00,,,0.00,weatherlink.com 1.10,2013-05-10 09:58:00,
2013-05-10 06:13:00,56.0,55.0,30.04,South,169,0.0,0.0,96,0.00,,,0.00,weatherlink.com 1.10,2013-05-10 10:13:00,
2013-05-10 06:28:00,55.9,55.0,30.04,South,169,0.0,0.0,97,0.00,,,0.00,weatherlink.com 1.10,2013-05-10 10:28:00,
2013-05-10 06:43:00,55.7,55.0,30.04,South,169,0.0,0.0,97,0.00,,,0.00,weatherlink.com 1.10,2013-05-10 10:43:00,
2013-05-10 06:58:00,55.9,55.0,30.04,South,169,0.0,0.0,97,0.00,,,0.00,weatherlink.com 1.10,2013-05-10 10:58:00,
2013-05-10 07:13:00,56.2,55.0,30.04,South,169,0.0,0.0,97,0.00,,,0.00,weatherlink.com 1.10,2013-05-10 11:13:00,
2013-05-10 07:28:00,57.0,57.0,30.05,South,169,0.0,0.0,98,0.00,,,0.00,weatherlink.com 1.10,2013-05-10 11:28:00,
2013-05-10 07:43:00,58.0,58.0,30.05,South,169,0.0,0.0,98,0.00,,,0.00,weatherlink.com 1.10,2013-05-10 11:43:00,
2013-05-10 07:58:00,58.8,58.0,30.05,South,169,0.0,0.0,98,0.00,,,0.00,weatherlink.com 1.10,2013-05-10 11:58:00,
2013-05-10 08:13:00,59.6,59.0,30.05,South,169,0.0,0.0,98,0.00,,,0.00,weatherlink.com 1.10,2013-05-10 12:13:00,
2013-05-10 08:28:00,60.6,60.0,30.06,West,263,0.0,2.0,97,0.00,,,0.00,weatherlink.com 1.10,2013-05-10 12:28:00,
2013-05-10 08:43:00,62.1,61.0,30.06,West,263,0.0,1.0,95,0.00,,,0.00,weatherlink.com 1.10,2013-05-10 12:43:00,
2013-05-10 08:58:00,64.7,62.0,30.06,West,263,0.0,0.0,90,0.00,,,0.00,weatherlink.com 1.10,2013-05-10 12:58:00,
2013-05-10 09:13:00,66.9,63.0,30.06,West,263,0.0,0.0,86,0.00,,,0.00,weatherlink.com 1.10,2013-05-10 13:13:00,
2013-05-10 09:28:00,69.7,63.0,30.06,ESE,111,1.0,3.0,78,0.00,,,0.00,weatherlink.com 1.10,2013-05-10 13:28:00,
2013-05-10 09:43:00,71.3,62.0,30.06,East,98,0.0,3.0,73,0.00,,,0.00,weatherlink.com 1.10,2013-05-10 13:43:00,
2013-05-10 09:58:00,72.9,62.0,30.05,ESE,119,0.0,3.0,69,0.00,,,0.00,weatherlink.com 1.10,2013-05-10 13:58:00,
2013-05-10 10:13:00,74.2,63.0,30.06,East,89,0.0,3.0,68,0.00,,,0.00,weatherlink.com 1.10,2013-05-10 14:13:00,
2013-05-10 10:28:00,75.4,62.0,30.06,SE,142,1.0,6.0,63,0.00,,,0.00,weatherlink.com 1.10,2013-05-10 14:28:00,
2013-05-10 10:43:00,76.9,63.0,30.05,SSE,157,2.0,6.0,62,0.00,,,0.00,weatherlink.com 1.10,2013-05-10 14:43:00,
2013-05-10 10:59:00,78.0,64.0,30.06,East,79,3.0,8.0,62,0.00,,,0.00,weatherlink.com 1.10,2013-05-10 14:59:00,
2013-05-10 11:14:00,78.8,63.0,30.06,SE,136,3.0,7.0,58,0.00,,,0.00,weatherlink.com 1.10,2013-05-10 15:14:00,
2013-05-10 11:44:00,78.9,61.0,30.06,SSW,198,2.0,13.0,54,0.00,,,0.00,weatherlink.com 1.10,2013-05-10 15:44:00,
2013-05-10 11:59:00,78.9,60.0,30.06,SE,128,2.0,10.0,53,0.00,,,0.00,weatherlink.com 1.10,2013-05-10 15:59:00,
2013-05-10 12:14:00,79.5,60.0,30.06,ESE,108,4.0,11.0,52,0.00,,,0.00,weatherlink.com 1.10,2013-05-10 16:14:00,
2013-05-10 12:29:00,79.9,61.0,30.06,ESE,117,2.0,10.0,53,0.00,,,0.00,weatherlink.com 1.10,2013-05-10 16:29:00,
2013-05-10 12:44:00,80.3,61.0,30.05,SE,128,7.0,10.0,52,0.00,,,0.00,weatherlink.com 1.10,2013-05-10 16:44:00,
2013-05-10 12:59:00,79.6,60.0,30.04,SE,133,4.0,10.0,51,0.00,,,0.00,weatherlink.com 1.10,2013-05-10 16:59:00,
2013-05-10 13:14:00,80.5,60.0,30.04,East,99,8.0,19.0,49,0.00,,,0.00,weatherlink.com 1.10,2013-05-10 17:14:00,
2013-05-10 13:29:00,81.0,60.0,30.04,NE,49,3.0,12.0,49,0.00,,,0.00,weatherlink.com 1.10,2013-05-10 17:29:00,
2013-05-10 13:44:00,80.5,60.0,30.04,East,84,5.0,17.0,50,0.00,,,0.00,weatherlink.com 1.10,2013-05-10 17:44:00,
2013-05-10 13:59:00,80.5,61.0,30.04,ESE,117,1.0,15.0,52,0.00,,,0.00,weatherlink.com 1.10,2013-05-10 17:59:00,
2013-05-10 14:14:00,79.9,60.0,30.04,East,84,5.0,11.0,51,0.00,,,0.00,weatherlink.com 1.10,2013-05-10 18:14:00,
2013-05-10 14:29:00,78.9,60.0,30.03,SW,229,1.0,14.0,53,0.00,,,0.00,weatherlink.com 1.10,2013-05-10 18:29:00,
2013-05-10 14:44:00,79.3,60.0,30.02,SE,142,1.0,13.0,52,0.00,,,0.00,weatherlink.com 1.10,2013-05-10 18:44:00,
2013-05-10 14:59:00,79.7,60.0,30.02,South,182,3.0,10.0,52,0.00,,,0.00,weatherlink.com 1.10,2013-05-10 18:59:00,
2013-05-10 15:14:00,79.6,62.0,30.01,ESE,121,4.0,8.0,55,0.00,,,0.00,weatherlink.com 1.10,2013-05-10 19:14:00,
2013-05-10 15:29:00,80.9,62.0,30.00,East,92,3.0,8.0,53,0.00,,,0.00,weatherlink.com 1.10,2013-05-10 19:29:00,
2013-05-10 15:44:00,80.7,61.0,29.99,East,90,6.0,14.0,51,0.00,,,0.00,weatherlink.com 1.10,2013-05-10 19:44:00,
2013-05-10 15:59:00,80.0,61.0,29.99,East,90,7.0,11.0,53,0.00,,,0.00,weatherlink.com 1.10,2013-05-10 19:59:00,
2013-05-10 16:14:00,79.9,61.0,29.99,SE,134,1.0,8.0,53,0.00,,,0.00,weatherlink.com 1.10,2013-05-10 20:14:00,
2013-05-10 16:29:00,79.6,61.0,29.98,ESE,120,0.0,8.0,54,0.00,,,0.00,weatherlink.com 1.10,2013-05-10 20:29:00,
2013-05-10 16:44:00,79.0,62.0,29.98,SE,129,4.0,10.0,56,0.00,,,0.00,weatherlink.com 1.10,2013-05-10 20:44:00,
2013-05-10 16:59:00,78.9,61.0,29.98,East,88,3.0,7.0,54,0.00,,,0.00,weatherlink.com 1.10,2013-05-10 20:59:00,
2013-05-10 17:14:00,78.3,61.0,29.98,SSW,192,0.0,10.0,56,0.00,,,0.00,weatherlink.com 1.10,2013-05-10 21:14:00,
2013-05-10 17:29:00,78.1,61.0,29.98,SSE,163,2.0,9.0,56,0.00,,,0.00,weatherlink.com 1.10,2013-05-10 21:29:00,
2013-05-10 17:44:00,78.0,61.0,29.97,ESE,119,1.0,8.0,56,0.00,,,0.00,weatherlink.com 1.10,2013-05-10 21:44:00,
2013-05-10 17:59:00,77.7,61.0,29.98,ENE,64,0.0,7.0,57,0.00,,,0.00,weatherlink.com 1.10,2013-05-10 21:59:00,
2013-05-10 18:14:00,77.5,61.0,29.97,ENE,66,1.0,5.0,58,0.00,,,0.00,weatherlink.com 1.10,2013-05-10 22:14:00,
2013-05-10 18:29:00,77.0,61.0,29.97,East,85,0.0,9.0,58,0.00,,,0.00,weatherlink.com 1.10,2013-05-10 22:29:00,
2013-05-10 18:44:00,76.5,61.0,29.97,SE,134,0.0,9.0,58,0.00,,,0.00,weatherlink.com 1.10,2013-05-10 22:44:00,
2013-05-10 18:59:00,76.1,60.0,29.97,East,89,3.0,5.0,58,0.00,,,0.00,weatherlink.com 1.10,2013-05-10 22:59:00,
2013-05-10 19:14:00,75.7,60.0,29.96,ESE,119,1.0,6.0,59,0.00,,,0.00,weatherlink.com 1.10,2013-05-10 23:14:00,
2013-05-10 19:29:00,75.3,60.0,29.95,East,99,0.0,2.0,60,0.00,,,0.00,weatherlink.com 1.10,2013-05-10 23:29:00,
2013-05-10 19:44:00,74.8,60.0,29.95,East,96,0.0,4.0,61,0.00,,,0.00,weatherlink.com 1.10,2013-05-10 23:44:00,
2013-05-10 19:59:00,74.2,61.0,29.95,East,92,0.0,1.0,63,0.00,,,0.00,weatherlink.com 1.10,2013-05-10 23:59:00,
2013-05-10 20:14:00,73.8,61.0,29.96,ESE,113,0.0,1.0,64,0.00,,,0.00,weatherlink.com 1.10,2013-05-11 00:14:00,
2013-05-10 20:29:00,73.1,61.0,29.96,East,84,0.0,2.0,67,0.00,,,0.00,weatherlink.com 1.10,2013-05-11 00:29:00,
2013-05-10 20:44:00,72.6,61.0,29.96,East,84,0.0,0.0,67,0.00,,,0.00,weatherlink.com 1.10,2013-05-11 00:44:00,
2013-05-10 20:59:00,72.1,62.0,29.96,ESE,107,0.0,0.0,70,0.00,,,0.00,weatherlink.com 1.10,2013-05-11 00:59:00,
2013-05-10 21:14:00,71.5,62.0,29.96,ESE,107,0.0,0.0,71,0.00,,,0.00,weatherlink.com 1.10,2013-05-11 01:14:00,
2013-05-10 21:29:00,70.9,62.0,29.97,ESE,107,0.0,0.0,73,0.00,,,0.00,weatherlink.com 1.10,2013-05-11 01:29:00,
2013-05-10 21:44:00,70.3,62.0,29.98,ESE,107,0.0,0.0,75,0.00,,,0.00,weatherlink.com 1.10,2013-05-11 01:44:00,
2013-05-10 21:59:00,69.8,62.0,29.98,ESE,107,0.0,0.0,77,0.00,,,0.00,weatherlink.com 1.10,2013-05-11 01:59:00,
2013-05-10 22:14:00,69.2,62.0,29.98,ESE,107,0.0,0.0,78,0.00,,,0.00,weatherlink.com 1.10,2013-05-11 02:14:00,
2013-05-10 22:29:00,68.9,63.0,29.97,ESE,107,0.0,0.0,80,0.00,,,0.00,weatherlink.com 1.10,2013-05-11 02:29:00,
2013-05-10 22:44:00,68.6,62.0,29.96,ESE,107,0.0,0.0,80,0.00,,,0.00,weatherlink.com 1.10,2013-05-11 02:44:00,
2013-05-10 22:59:00,68.3,63.0,29.96,ESE,107,0.0,0.0,82,0.00,,,0.00,weatherlink.com 1.10,2013-05-11 02:59:00,
2013-05-10 23:14:00,68.4,62.0,29.96,ESE,112,0.0,2.0,80,0.00,,,0.00,weatherlink.com 1.10,2013-05-11 03:14:00,
2013-05-10 23:29:00,68.7,62.0,29.97,ESE,121,0.0,0.0,79,0.00,,,0.00,weatherlink.com 1.10,2013-05-11 03:29:00,
2013-05-10 23:45:00,68.7,62.0,29.97,East,96,1.0,2.0,79,0.00,,,0.00,weatherlink.com 1.10,2013-05-11 03:45:00,